Time,TemperatureF,DewpointF,PressureIn,WindDirection,WindDirectionDegrees,WindSpeedMPH,WindSpeedGustMPH,Humidity,HourlyPrecipIn,Conditions,Clouds,dailyrainin,SolarRadiationWatts/m^2,SoftwareType,DateUTC
2013-10-17 00:02:00,52.8,51.7,29.76,SW,233,5.5,11.5,96,0.00,RA,,0.00,0.0,WeatherDisplay:10.37,2013-10-16 22:02:00,
2013-10-17 00:07:00,52.9,51.8,29.76,SW,236,7.2,10.4,96,0.00,RA,,0.00,0.0,WeatherDisplay:10.37,2013-10-16 22:07:00,
2013-10-17 00:12:00,52.9,51.8,29.76,SW,234,5.9,6.9,96,0.00,RA,,0.00,0.0,WeatherDisplay:10.37,2013-10-16 22:12:00,
2013-10-17 00:17:00,52.9,51.8,29.76,SW,234,4.7,8.1,96,0.00,RA,,0.00,0.0,WeatherDisplay:10.37,2013-10-16 22:17:00,
2013-10-17 00:22:00,52.9,51.8,29.76,SW,235,5.4,6.9,96,0.00,RA,,0.00,0.0,WeatherDisplay:10.37,2013-10-16 22:22:00,
2013-10-17 00:27:00,52.8,51.7,29.76,SW,234,2.5,10.0,96,0.00,BKN,,0.00,0.0,WeatherDisplay:10.37,2013-10-16 22:27:00,
2013-10-17 00:32:00,52.9,51.8,29.76,SW,235,4.5,8.1,96,0.00,FEW,,0.00,0.0,WeatherDisplay:10.37,2013-10-16 22:32:00,
2013-10-17 00:37:00,52.9,51.8,29.76,SW,236,5.6,8.1,96,0.00,FEW,,0.00,0.0,WeatherDisplay:10.37,2013-10-16 22:37:00,
2013-10-17 00:42:00,53.0,51.9,29.76,WSW,241,5.7,9.2,96,0.00,FEW,,0.00,0.0,WeatherDisplay:10.37,2013-10-16 22:42:00,
2013-10-17 00:47:00,53.1,52.0,29.77,WSW,244,6.2,10.4,96,0.00,FEW,,0.00,0.0,WeatherDisplay:10.37,2013-10-16 22:47:00,
2013-10-17 00:52:00,53.1,52.0,29.77,WSW,238,6.6,9.2,96,0.00,FEW,,0.00,0.0,WeatherDisplay:10.37,2013-10-16 22:52:00,
2013-10-17 00:57:00,53.1,52.0,29.77,WSW,237,5.6,10.0,96,0.00,FEW,,0.00,0.0,WeatherDisplay:10.37,2013-10-16 22:57:00,
2013-10-17 01:02:00,53.2,52.1,29.77,WSW,239,5.6,9.2,96,0.00,CLR,,0.00,0.0,WeatherDisplay:10.37,2013-10-16 23:02:00,
2013-10-17 01:07:00,53.2,52.1,29.77,WSW,238,4.5,4.6,96,0.00,CLR,,0.00,0.0,WeatherDisplay:10.37,2013-10-16 23:07:00,
2013-10-17 01:12:00,53.3,52.2,29.77,WSW,243,6.2,9.2,96,0.00,CLR,,0.00,0.0,WeatherDisplay:10.37,2013-10-16 23:12:00,
2013-10-17 01:17:00,53.4,52.3,29.77,WSW,243,6.3,8.1,96,0.00,CLR,,0.00,0.0,WeatherDisplay:10.37,2013-10-16 23:17:00,
2013-10-17 01:22:00,53.7,52.6,29.77,WSW,252,6.7,13.8,96,0.00,CLR,,0.00,0.0,WeatherDisplay:10.37,2013-10-16 23:22:00,
2013-10-17 01:27:00,54.1,53.0,29.77,WSW,244,12.2,16.1,96,0.00,CLR,,0.00,0.0,WeatherDisplay:10.37,2013-10-16 23:27:00,
2013-10-17 01:32:00,54.8,53.4,29.77,West,267,12.4,16.1,95,0.00,CLR,,0.00,0.0,WeatherDisplay:10.37,2013-10-16 23:32:00,
2013-10-17 01:37:00,55.4,53.7,29.77,West,260,11.1,16.1,94,0.00,CLR,,0.00,0.0,WeatherDisplay:10.37,2013-10-16 23:37:00,
2013-10-17 01:42:00,55.8,53.5,29.77,West,275,10.5,16.0,92,0.00,CLR,,0.00,0.0,WeatherDisplay:10.37,2013-10-16 23:42:00,
2013-10-17 01:47:00,56.3,53.7,29.77,WSW,252,7.9,13.8,91,0.00,CLR,,0.00,0.0,WeatherDisplay:10.37,2013-10-16 23:47:00,
2013-10-17 01:52:00,56.4,53.5,29.77,WSW,254,10.0,13.8,90,0.00,CLR,,0.00,0.0,WeatherDisplay:10.37,2013-10-16 23:52:00,
2013-10-17 01:57:00,56.4,53.2,29.78,West,261,9.4,12.7,89,0.00,CLR,,0.00,0.0,WeatherDisplay:10.37,2013-10-16 23:57:00,
2013-10-17 02:02:00,56.5,53.3,29.77,SW,232,9.8,19.6,89,0.00,CLR,,0.00,0.0,WeatherDisplay:10.37,2013-10-17 00:02:00,
2013-10-17 02:07:00,56.5,53.0,29.77,WSW,253,10.5,15.0,88,0.00,CLR,,0.00,0.0,WeatherDisplay:10.37,2013-10-17 00:07:00,
2013-10-17 02:12:00,56.5,53.0,29.77,SW,236,9.3,12.7,88,0.00,CLR,,0.00,0.0,WeatherDisplay:10.37,2013-10-17 00:12:00,
2013-10-17 02:17:00,56.3,52.8,29.77,WSW,242,7.7,13.8,88,0.00,CLR,,0.00,0.0,WeatherDisplay:10.37,2013-10-17 00:17:00,
2013-10-17 02:22:00,56.3,52.8,29.77,SSW,210,12.1,16.1,88,0.00,CLR,,0.00,0.0,WeatherDisplay:10.37,2013-10-17 00:22:00,
2013-10-17 02:27:00,56.3,52.8,29.77,WSW,254,8.7,12.7,88,0.00,CLR,,0.00,0.0,WeatherDisplay:10.37,2013-10-17 00:27:00,
2013-10-17 02:32:00,56.3,52.8,29.77,SW,236,7.0,12.7,88,0.00,CLR,,0.00,0.0,WeatherDisplay:10.37,2013-10-17 00:32:00,
2013-10-17 02:37:00,56.2,52.7,29.77,SW,229,9.1,12.7,88,0.00,CLR,,0.00,0.0,WeatherDisplay:10.37,2013-10-17 00:37:00,
2013-10-17 02:42:00,56.1,52.6,29.78,WSW,249,9.8,13.8,88,0.00,CLR,,0.00,0.0,WeatherDisplay:10.37,2013-10-17 00:42:00,
2013-10-17 02:47:00,56.1,52.6,29.77,WSW,254,8.9,12.7,88,0.00,CLR,,0.00,0.0,WeatherDisplay:10.37,2013-10-17 00:47:00,
2013-10-17 02:52:00,56.1,52.6,29.77,WSW,251,10.9,18.4,88,0.00,CLR,,0.00,0.0,WeatherDisplay:10.37,2013-10-17 00:52:00,
2013-10-17 02:57:00,56.1,52.6,29.77,WSW,255,9.5,19.6,88,0.00,CLR,,0.00,0.0,WeatherDisplay:10.37,2013-10-17 00:57:00,
2013-10-17 03:02:00,56.0,52.5,29.77,WSW,248,9.7,13.8,88,0.00,CLR,,0.00,0.0,WeatherDisplay:10.37,2013-10-17 01:02:00,
2013-10-17 03:07:00,56.1,52.9,29.77,WSW,254,8.2,16.1,89,0.00,CLR,,0.00,0.0,WeatherDisplay:10.37,2013-10-17 01:07:00,
2013-10-17 03:12:00,56.1,52.6,29.77,SSW,209,9.5,12.7,88,0.00,CLR,,0.00,0.0,WeatherDisplay:10.37,2013-10-17 01:12:00,
2013-10-17 03:17:00,56.1,52.9,29.77,WSW,255,9.2,13.8,89,0.00,CLR,,0.00,0.0,WeatherDisplay:10.37,2013-10-17 01:17:00,
2013-10-17 03:22:00,56.1,52.9,29.76,WSW,238,10.0,18.4,89,0.00,CLR,,0.00,0.0,WeatherDisplay:10.37,2013-10-17 01:22:00,
2013-10-17 03:27:00,56.1,52.9,29.76,WSW,239,8.5,11.5,89,0.00,CLR,,0.00,0.0,WeatherDisplay:10.37,2013-10-17 01:27:00,
2013-10-17 03:32:00,56.0,52.8,29.76,WSW,237,6.8,10.4,89,0.00,CLR,,0.00,0.0,WeatherDisplay:10.37,2013-10-17 01:32:00,
2013-10-17 03:37:00,55.9,52.7,29.76,WSW,242,7.5,11.0,89,0.00,CLR,,0.00,0.0,WeatherDisplay:10.37,2013-10-17 01:37:00,
2013-10-17 03:42:00,55.8,52.9,29.76,West,259,8.5,11.5,90,0.00,CLR,,0.00,0.0,WeatherDisplay:10.37,2013-10-17 01:42:00,
2013-10-17 03:47:00,55.8,52.9,29.76,WSW,240,5.9,13.8,90,0.00,CLR,,0.00,0.0,WeatherDisplay:10.37,2013-10-17 01:47:00,
2013-10-17 03:52:00,55.8,53.2,29.76,WSW,246,10.0,15.0,91,0.00,CLR,,0.00,0.0,WeatherDisplay:10.37,2013-10-17 01:52:00,
2013-10-17 03:57:00,55.8,53.2,29.76,WSW,248,9.6,16.1,91,0.00,CLR,,0.00,0.0,WeatherDisplay:10.37,2013-10-17 01:57:00,
2013-10-17 04:02:00,56.0,53.4,29.76,WSW,254,11.7,18.4,91,0.00,CLR,,0.00,0.0,WeatherDisplay:10.37,2013-10-17 02:02:00,
2013-10-17 04:07:00,56.2,53.6,29.76,WSW,239,10.6,13.8,91,0.00,CLR,,0.00,0.0,WeatherDisplay:10.37,2013-10-17 02:07:00,
2013-10-17 04:12:00,56.2,53.6,29.76,SW,225,9.6,13.0,91,0.00,CLR,,0.00,0.0,WeatherDisplay:10.37,2013-10-17 02:12:00,
2013-10-17 04:17:00,56.2,53.6,29.76,WSW,237,8.0,16.1,91,0.00,CLR,,0.00,0.0,WeatherDisplay:10.37,2013-10-17 02:17:00,
2013-10-17 04:22:00,56.2,53.6,29.76,SW,230,10.3,18.4,91,0.00,CLR,,0.00,0.0,WeatherDisplay:10.37,2013-10-17 02:22:00,
2013-10-17 04:27:00,56.2,53.6,29.75,SW,236,9.9,15.0,91,0.00,CLR,,0.00,0.0,WeatherDisplay:10.37,2013-10-17 02:27:00,
2013-10-17 04:32:00,56.3,53.7,29.75,SW,228,9.4,12.7,91,0.00,BKN,,0.00,0.0,WeatherDisplay:10.37,2013-10-17 02:32:00,
2013-10-17 04:37:00,56.3,53.7,29.75,WSW,240,9.1,13.8,91,0.00,BKN,,0.00,0.0,WeatherDisplay:10.37,2013-10-17 02:37:00,
2013-10-17 04:42:00,56.2,53.6,29.75,WSW,243,9.3,11.5,91,0.00,BKN,,0.00,0.0,WeatherDisplay:10.37,2013-10-17 02:42:00,
2013-10-17 04:47:00,56.1,53.5,29.76,SW,231,7.8,10.4,91,0.00,BKN,,0.00,0.0,WeatherDisplay:10.37,2013-10-17 02:47:00,
2013-10-17 04:52:00,56.0,53.7,29.76,WSW,255,7.3,11.0,92,0.00,BKN,,0.00,0.0,WeatherDisplay:10.37,2013-10-17 02:52:00,
2013-10-17 04:57:00,56.1,53.8,29.76,WSW,246,11.4,17.3,92,0.00,BKN,,0.00,0.0,WeatherDisplay:10.37,2013-10-17 02:57:00,
2013-10-17 05:02:00,56.2,53.9,29.76,WSW,249,10.0,16.1,92,0.00,BKN,,0.00,0.0,WeatherDisplay:10.37,2013-10-17 03:02:00,
2013-10-17 05:07:00,56.2,53.9,29.76,WSW,246,10.0,13.8,92,0.00,BKN,,0.00,0.0,WeatherDisplay:10.37,2013-10-17 03:07:00,
2013-10-17 05:12:00,56.2,53.9,29.76,WSW,246,10.0,13.8,92,0.00,BKN,,0.00,0.0,WeatherDisplay:10.37,2013-10-17 03:12:00,
2013-10-17 05:28:00,56.2,53.9,29.76,WSW,246,10.0,13.8,92,0.00,BKN,,0.00,0.0,WeatherDisplay:10.37,2013-10-17 03:28:00,
2013-10-17 05:35:00,56.8,53.9,29.76,WSW,238,12.8,19.6,90,0.00,BKN,,0.00,0.0,WeatherDisplay:10.37,2013-10-17 03:35:00,
2013-10-17 05:40:00,56.8,53.6,29.76,WSW,248,9.4,16.1,89,0.00,BKN,,0.00,0.0,WeatherDisplay:10.37,2013-10-17 03:40:00,
2013-10-17 05:45:00,56.9,53.7,29.76,WSW,240,13.6,17.3,89,0.00,BKN,,0.00,0.0,WeatherDisplay:10.37,2013-10-17 03:45:00,
2013-10-17 05:50:00,56.9,53.7,29.76,WSW,256,11.8,15.0,89,0.00,BKN,,0.00,0.0,WeatherDisplay:10.37,2013-10-17 03:50:00,
2013-10-17 05:55:00,57.0,53.8,29.76,West,259,8.9,11.5,89,0.00,BKN,,0.00,0.0,WeatherDisplay:10.37,2013-10-17 03:55:00,
2013-10-17 06:00:00,57.1,53.9,29.76,SW,233,9.3,17.3,89,0.00,BKN,,0.00,0.0,WeatherDisplay:10.37,2013-10-17 04:00:00,
2013-10-17 06:01:00,57.1,53.9,29.76,SW,236,8.1,17.3,89,0.00,BKN,,0.00,0.0,WeatherDisplay:10.37,2013-10-17 04:01:00,
2013-10-17 06:06:00,57.1,53.9,29.76,WSW,255,8.7,17.3,89,0.00,OVC,,0.00,0.0,WeatherDisplay:10.37,2013-10-17 04:06:00,
2013-10-17 06:11:00,57.1,53.6,29.76,West,270,10.0,17.3,88,0.00,OVC,,0.00,0.0,WeatherDisplay:10.37,2013-10-17 04:11:00,
2013-10-17 06:16:00,57.1,53.6,29.76,WSW,243,9.2,11.5,88,0.00,OVC,,0.00,0.0,WeatherDisplay:10.37,2013-10-17 04:16:00,
2013-10-17 06:21:00,57.0,53.5,29.76,WSW,248,10.7,16.0,88,0.00,OVC,,0.00,0.0,WeatherDisplay:10.37,2013-10-17 04:21:00,
2013-10-17 06:26:00,57.0,53.5,29.76,SW,228,11.7,19.0,88,0.00,OVC,,0.00,0.0,WeatherDisplay:10.37,2013-10-17 04:26:00,
2013-10-17 06:31:00,57.0,53.5,29.76,West,267,11.8,17.3,88,0.00,BKN,,0.00,0.0,WeatherDisplay:10.37,2013-10-17 04:31:00,
2013-10-17 06:36:00,57.0,53.5,29.76,SW,230,11.6,13.8,88,0.00,BKN,,0.00,0.0,WeatherDisplay:10.37,2013-10-17 04:36:00,
2013-10-17 06:41:00,57.0,53.5,29.77,West,267,9.6,16.1,88,0.00,BKN,,0.00,0.0,WeatherDisplay:10.37,2013-10-17 04:41:00,
2013-10-17 06:46:00,57.1,53.6,29.76,WSW,244,10.2,17.3,88,0.00,BKN,,0.00,0.0,WeatherDisplay:10.37,2013-10-17 04:46:00,
2013-10-17 06:51:00,57.1,53.2,29.76,West,259,11.0,17.3,87,0.00,BKN,,0.00,0.0,WeatherDisplay:10.37,2013-10-17 04:51:00,
2013-10-17 06:56:00,57.0,53.5,29.77,WSW,242,9.9,16.1,88,0.00,BKN,,0.00,0.0,WeatherDisplay:10.37,2013-10-17 04:56:00,
2013-10-17 07:01:00,57.0,53.5,29.77,West,260,13.5,19.6,88,0.00,BKN,,0.00,0.0,WeatherDisplay:10.37,2013-10-17 05:01:00,
2013-10-17 07:06:00,57.0,53.1,29.77,West,265,12.2,16.1,87,0.00,BKN,,0.00,0.0,WeatherDisplay:10.37,2013-10-17 05:06:00,
2013-10-17 07:11:00,57.0,53.1,29.77,West,269,12.6,15.0,87,0.00,BKN,,0.00,0.0,WeatherDisplay:10.37,2013-10-17 05:11:00,
2013-10-17 07:16:00,57.0,53.5,29.77,West,264,7.0,11.5,88,0.00,BKN,,0.00,0.0,WeatherDisplay:10.37,2013-10-17 05:16:00,
2013-10-17 07:21:00,57.0,53.5,29.77,West,261,12.8,19.6,88,0.00,BKN,,0.00,0.0,WeatherDisplay:10.37,2013-10-17 05:21:00,
2013-10-17 07:26:00,57.0,53.1,29.77,WSW,256,14.7,22.0,87,0.00,BKN,,0.00,0.0,WeatherDisplay:10.37,2013-10-17 05:26:00,
2013-10-17 07:31:00,57.0,53.1,29.77,WSW,255,11.5,19.6,87,0.00,BKN,,0.00,0.0,WeatherDisplay:10.37,2013-10-17 05:31:00,
2013-10-17 07:36:00,56.9,53.1,29.77,West,264,8.3,15.0,87,0.00,BKN,,0.00,0.0,WeatherDisplay:10.37,2013-10-17 05:36:00,
2013-10-17 07:41:00,56.8,53.0,29.77,WSW,250,14.0,19.6,87,0.00,BKN,,0.00,0.0,WeatherDisplay:10.37,2013-10-17 05:41:00,
2013-10-17 07:46:00,56.6,53.1,29.77,West,264,13.8,18.4,88,0.00,BKN,,0.00,0.0,WeatherDisplay:10.37,2013-10-17 05:46:00,
2013-10-17 07:51:00,56.6,53.1,29.78,WSW,255,10.8,14.0,88,0.00,BKN,,0.00,0.0,WeatherDisplay:10.37,2013-10-17 05:51:00,
2013-10-17 07:56:00,56.6,53.1,29.78,West,267,8.4,19.0,88,0.00,BKN,,0.00,0.0,WeatherDisplay:10.37,2013-10-17 05:56:00,
2013-10-17 08:01:00,56.5,53.0,29.78,WSW,257,6.8,18.4,88,0.00,BKN,,0.00,0.0,WeatherDisplay:10.37,2013-10-17 06:01:00,
2013-10-17 08:06:00,56.5,53.0,29.78,West,263,12.0,19.6,88,0.00,BKN,,0.00,0.0,WeatherDisplay:10.37,2013-10-17 06:06:00,
2013-10-17 08:11:00,56.6,53.1,29.78,West,269,10.0,16.1,88,0.00,BKN,,0.00,0.0,WeatherDisplay:10.37,2013-10-17 06:11:00,
2013-10-17 08:16:00,56.6,52.8,29.78,WSW,253,10.7,17.3,87,0.00,BKN,,0.00,0.0,WeatherDisplay:10.37,2013-10-17 06:16:00,
2013-10-17 08:21:00,56.6,53.1,29.79,WSW,257,10.1,14.0,88,0.00,BKN,,0.00,5.0,WeatherDisplay:10.37,2013-10-17 06:21:00,
2013-10-17 08:26:00,56.7,52.9,29.79,SW,231,12.1,17.3,87,0.00,BKN,,0.00,9.0,WeatherDisplay:10.37,2013-10-17 06:26:00,
2013-10-17 08:31:00,56.7,52.9,29.79,WNW,282,9.4,16.0,87,0.00,BKN,,0.00,19.0,WeatherDisplay:10.37,2013-10-17 06:31:00,
2013-10-17 08:36:00,56.8,53.0,29.79,WSW,257,12.8,20.7,87,0.00,BKN,,0.00,28.0,WeatherDisplay:10.37,2013-10-17 06:36:00,
2013-10-17 08:41:00,56.9,53.1,29.79,WSW,248,15.1,19.6,87,0.00,BKN,,0.00,18.0,WeatherDisplay:10.37,2013-10-17 06:41:00,
2013-10-17 08:46:00,57.0,53.1,29.80,West,266,11.7,16.1,87,0.00,BKN,,0.00,14.0,WeatherDisplay:10.37,2013-10-17 06:46:00,
2013-10-17 08:51:00,57.1,53.2,29.80,West,270,12.6,16.1,87,0.00,BKN,,0.00,18.0,WeatherDisplay:10.37,2013-10-17 06:51:00,
2013-10-17 08:56:00,57.1,53.2,29.80,West,262,12.5,19.6,87,0.00,BKN,,0.00,37.0,WeatherDisplay:10.37,2013-10-17 06:56:00,
2013-10-17 09:01:00,57.2,53.0,29.80,WSW,255,12.7,17.3,86,0.00,BKN,,0.00,28.0,WeatherDisplay:10.37,2013-10-17 07:01:00,
2013-10-17 09:06:00,57.2,53.0,29.80,WSW,258,10.9,16.1,86,0.00,BKN,,0.00,33.0,WeatherDisplay:10.37,2013-10-17 07:06:00,
2013-10-17 09:11:00,57.3,53.1,29.80,WSW,247,11.0,18.4,86,0.00,BKN,,0.00,23.0,WeatherDisplay:10.37,2013-10-17 07:11:00,
2013-10-17 09:16:00,57.3,53.1,29.81,WSW,255,9.2,11.5,86,0.00,BKN,,0.00,49.0,WeatherDisplay:10.37,2013-10-17 07:16:00,
2013-10-17 09:21:00,57.3,53.1,29.81,WSW,248,12.2,21.9,86,0.00,BKN,,0.00,67.0,WeatherDisplay:10.37,2013-10-17 07:21:00,
2013-10-17 09:29:00,57.4,53.2,29.81,WSW,255,13.1,19.6,86,0.00,BKN,,0.00,76.0,WeatherDisplay:10.37,2013-10-17 07:29:00,
2013-10-17 09:34:00,57.5,53.3,29.81,WSW,253,9.0,15.0,86,0.00,BKN,,0.00,51.0,WeatherDisplay:10.37,2013-10-17 07:34:00,
2013-10-17 09:39:00,57.6,53.4,29.81,WSW,242,11.9,15.0,86,0.00,BKN,,0.00,56.0,WeatherDisplay:10.37,2013-10-17 07:39:00,
2013-10-17 09:44:00,57.6,53.4,29.81,WSW,245,4.9,11.5,86,0.00,BKN,,0.00,39.0,WeatherDisplay:10.37,2013-10-17 07:44:00,
2013-10-17 09:49:00,57.5,53.0,29.81,West,262,15.9,28.8,85,0.00,BKN,,0.00,37.0,WeatherDisplay:10.37,2013-10-17 07:49:00,
2013-10-17 09:54:00,57.6,52.5,29.81,West,271,11.9,16.1,83,0.00,BKN,,0.00,51.0,WeatherDisplay:10.37,2013-10-17 07:54:00,
2013-10-17 09:59:00,57.7,52.6,29.82,WSW,253,8.5,13.0,83,0.00,BKN,,0.00,86.0,WeatherDisplay:10.37,2013-10-17 07:59:00,
2013-10-17 10:05:00,57.8,52.6,29.82,West,263,10.3,17.3,83,0.00,BKN,,0.00,162.0,WeatherDisplay:10.37,2013-10-17 08:05:00,
2013-10-17 10:08:00,57.8,52.6,29.82,WNW,282,8.7,18.0,83,0.00,BKN,,0.00,86.0,WeatherDisplay:10.37,2013-10-17 08:08:00,
2013-10-17 10:13:00,57.9,52.4,29.82,West,260,9.3,15.0,82,0.00,BKN,,0.00,125.0,WeatherDisplay:10.37,2013-10-17 08:13:00,
2013-10-17 10:18:00,58.0,52.2,29.82,West,271,13.8,23.0,81,0.00,BKN,,0.00,165.0,WeatherDisplay:10.37,2013-10-17 08:18:00,
2013-10-17 10:23:00,58.1,52.3,29.83,West,266,8.5,14.0,81,0.00,BKN,,0.00,146.0,WeatherDisplay:10.37,2013-10-17 08:23:00,
2013-10-17 10:28:00,58.2,52.4,29.83,West,271,9.2,19.6,81,0.00,BKN,,0.00,102.0,WeatherDisplay:10.37,2013-10-17 08:28:00,
2013-10-17 10:33:00,58.3,52.5,29.83,West,264,10.3,15.0,81,0.00,BKN,,0.00,111.0,WeatherDisplay:10.37,2013-10-17 08:33:00,
2013-10-17 10:38:00,58.3,52.5,29.83,WSW,257,10.2,20.7,81,0.00,BKN,,0.00,197.0,WeatherDisplay:10.37,2013-10-17 08:38:00,
2013-10-17 10:43:00,58.4,52.2,29.83,WNW,286,11.6,19.6,80,0.00,BKN,,0.00,169.0,WeatherDisplay:10.37,2013-10-17 08:43:00,
2013-10-17 10:48:00,58.5,52.3,29.83,WSW,249,17.9,26.5,80,0.00,BKN,,0.00,155.0,WeatherDisplay:10.37,2013-10-17 08:48:00,
2013-10-17 10:53:00,58.6,52.1,29.83,WSW,255,13.4,22.0,79,0.00,BKN,,0.00,169.0,WeatherDisplay:10.37,2013-10-17 08:53:00,
2013-10-17 10:58:00,58.6,52.1,29.83,WNW,296,8.3,16.1,79,0.00,BKN,,0.00,84.0,WeatherDisplay:10.37,2013-10-17 08:58:00,
2013-10-17 11:03:00,58.6,52.4,29.83,WSW,250,9.7,19.6,80,0.00,BKN,,0.00,105.0,WeatherDisplay:10.37,2013-10-17 09:03:00,
2013-10-17 11:08:00,58.5,52.3,29.83,WSW,258,8.4,11.5,80,0.00,BKN,,0.00,162.0,WeatherDisplay:10.37,2013-10-17 09:08:00,
2013-10-17 11:13:00,58.6,52.4,29.83,WSW,257,9.9,16.1,80,0.00,BKN,,0.00,114.0,WeatherDisplay:10.37,2013-10-17 09:13:00,
2013-10-17 11:18:00,58.6,52.4,29.83,West,271,9.6,18.4,80,0.00,BKN,,0.00,132.0,WeatherDisplay:10.37,2013-10-17 09:18:00,
2013-10-17 11:23:00,58.7,52.5,29.83,West,280,8.2,12.7,80,0.00,BKN,,0.00,206.0,WeatherDisplay:10.37,2013-10-17 09:23:00,
2013-10-17 11:28:00,58.8,53.0,29.83,West,264,8.1,12.7,81,0.00,BKN,,0.00,206.0,WeatherDisplay:10.37,2013-10-17 09:28:00,
2013-10-17 11:33:00,58.9,53.1,29.83,WNW,286,6.6,15.0,81,0.00,BKN,,0.00,221.0,WeatherDisplay:10.37,2013-10-17 09:33:00,
2013-10-17 11:38:00,58.9,53.1,29.84,WSW,256,11.3,17.3,81,0.00,BKN,,0.00,265.0,WeatherDisplay:10.37,2013-10-17 09:38:00,
2013-10-17 11:43:00,58.9,52.7,29.84,WSW,247,8.9,12.0,80,0.00,BKN,,0.00,113.0,WeatherDisplay:10.37,2013-10-17 09:43:00,
2013-10-17 11:48:00,58.8,52.6,29.84,West,276,8.7,15.0,80,0.00,BKN,,0.00,135.0,WeatherDisplay:10.37,2013-10-17 09:48:00,
2013-10-17 11:53:00,58.8,52.6,29.83,WNW,290,9.1,16.1,80,0.00,BKN,,0.00,95.0,WeatherDisplay:10.37,2013-10-17 09:53:00,
2013-10-17 11:58:00,58.6,52.4,29.84,WNW,282,11.5,19.6,80,0.00,BKN,,0.00,176.0,WeatherDisplay:10.37,2013-10-17 09:58:00,
2013-10-17 12:03:00,58.6,52.1,29.84,West,280,13.2,19.6,79,0.00,BKN,,0.00,128.0,WeatherDisplay:10.37,2013-10-17 10:03:00,
2013-10-17 12:08:00,58.7,52.2,29.84,West,276,8.8,15.0,79,0.00,BKN,,0.00,165.0,WeatherDisplay:10.37,2013-10-17 10:08:00,
2013-10-17 12:13:00,59.0,52.1,29.84,WSW,256,15.9,18.4,78,0.00,BKN,,0.00,582.0,WeatherDisplay:10.37,2013-10-17 10:13:00,
2013-10-17 12:18:00,59.3,52.4,29.84,West,263,10.8,12.7,78,0.00,BKN,,0.00,297.0,WeatherDisplay:10.37,2013-10-17 10:18:00,
2013-10-17 12:23:00,59.3,52.4,29.84,WNW,294,13.9,28.8,78,0.00,BKN,,0.00,118.0,WeatherDisplay:10.37,2013-10-17 10:23:00,
2013-10-17 12:28:00,59.1,52.2,29.85,WNW,302,11.2,20.7,78,0.00,BKN,,0.00,524.0,WeatherDisplay:10.37,2013-10-17 10:28:00,
2013-10-17 12:33:00,59.3,52.4,29.84,WNW,298,9.7,18.4,78,0.00,BKN,,0.00,561.0,WeatherDisplay:10.37,2013-10-17 10:33:00,
2013-10-17 12:38:00,59.4,52.5,29.85,West,274,11.4,17.3,78,0.00,BKN,,0.00,237.0,WeatherDisplay:10.37,2013-10-17 10:38:00,
2013-10-17 12:43:00,59.2,52.3,29.85,West,277,12.0,24.2,78,0.00,BKN,,0.00,199.0,WeatherDisplay:10.37,2013-10-17 10:43:00,
2013-10-17 12:48:00,59.1,51.9,29.85,West,265,8.0,12.7,77,0.00,BKN,,0.00,202.0,WeatherDisplay:10.37,2013-10-17 10:48:00,
2013-10-17 12:53:00,59.1,51.9,29.85,WNW,284,9.9,19.6,77,0.00,BKN,,0.00,202.0,WeatherDisplay:10.37,2013-10-17 10:53:00,
2013-10-17 12:58:00,59.2,52.0,29.85,West,280,11.7,19.6,77,0.00,BKN,,0.00,172.0,WeatherDisplay:10.37,2013-10-17 10:58:00,
2013-10-17 13:03:00,59.1,51.9,29.85,West,278,10.8,16.1,77,0.00,BKN,,0.00,93.0,WeatherDisplay:10.37,2013-10-17 11:03:00,
2013-10-17 13:08:00,58.9,51.7,29.85,West,263,5.5,13.0,77,0.00,BKN,,0.00,494.0,WeatherDisplay:10.37,2013-10-17 11:08:00,
2013-10-17 13:13:00,59.1,51.9,29.85,WSW,241,9.9,19.6,77,0.00,BKN,,0.00,494.0,WeatherDisplay:10.37,2013-10-17 11:13:00,
2013-10-17 13:18:00,59.4,51.8,29.85,NW,304,12.3,21.9,76,0.00,BKN,,0.00,489.0,WeatherDisplay:10.37,2013-10-17 11:18:00,
2013-10-17 13:23:00,59.5,51.9,29.85,WNW,301,12.0,19.6,76,0.00,BKN,,0.00,517.0,WeatherDisplay:10.37,2013-10-17 11:23:00,
2013-10-17 13:28:00,59.6,52.0,29.85,WNW,302,10.7,23.0,76,0.00,BKN,,0.00,496.0,WeatherDisplay:10.37,2013-10-17 11:28:00,
2013-10-17 13:33:00,59.5,51.9,29.86,West,271,14.1,19.6,76,0.00,BKN,,0.00,504.0,WeatherDisplay:10.37,2013-10-17 11:33:00,
2013-10-17 13:38:00,59.5,51.5,29.86,NW,308,8.7,16.1,75,0.00,BKN,,0.00,543.0,WeatherDisplay:10.37,2013-10-17 11:38:00,
2013-10-17 13:43:00,59.7,52.1,29.86,WNW,287,10.0,17.3,76,0.00,BKN,,0.00,594.0,WeatherDisplay:10.37,2013-10-17 11:43:00,
2013-10-17 13:48:00,59.6,52.0,29.86,WNW,288,8.6,15.0,76,0.00,BKN,,0.00,202.0,WeatherDisplay:10.37,2013-10-17 11:48:00,
2013-10-17 13:53:00,59.6,52.0,29.86,West,273,10.8,15.0,76,0.00,SCT,,0.00,631.0,WeatherDisplay:10.37,2013-10-17 11:53:00,
2013-10-17 13:58:00,59.7,51.7,29.87,West,277,8.4,17.3,75,0.00,SCT,,0.00,603.0,WeatherDisplay:10.37,2013-10-17 11:58:00,
2013-10-17 14:03:00,59.8,51.8,29.87,NW,316,8.7,14.0,75,0.00,BKN,,0.00,504.0,WeatherDisplay:10.37,2013-10-17 12:03:00,
2013-10-17 14:08:00,59.6,51.6,29.87,NW,309,14.2,21.0,75,0.00,BKN,,0.00,506.0,WeatherDisplay:10.37,2013-10-17 12:08:00,
2013-10-17 14:13:00,59.3,51.7,29.87,WNW,300,11.2,20.7,76,0.00,BKN,,0.00,188.0,WeatherDisplay:10.37,2013-10-17 12:13:00,
2013-10-17 14:18:00,59.1,51.2,29.87,NW,315,9.8,13.8,75,0.00,BKN,,0.00,178.0,WeatherDisplay:10.37,2013-10-17 12:18:00,
2013-10-17 14:23:00,59.4,51.5,29.88,WSW,257,10.4,15.0,75,0.00,BKN,,0.00,629.0,WeatherDisplay:10.37,2013-10-17 12:23:00,
2013-10-17 14:28:00,59.3,51.4,29.88,WNW,290,11.1,19.6,75,0.00,BKN,,0.00,253.0,WeatherDisplay:10.37,2013-10-17 12:28:00,
2013-10-17 14:33:00,59.4,51.1,29.88,WNW,290,7.9,15.0,74,0.00,BKN,,0.00,192.0,WeatherDisplay:10.37,2013-10-17 12:33:00,
2013-10-17 14:38:00,59.3,51.4,29.88,WNW,287,6.0,15.0,75,0.00,BKN,,0.00,554.0,WeatherDisplay:10.37,2013-10-17 12:38:00,
2013-10-17 14:43:00,59.3,51.4,29.88,WNW,293,12.1,19.6,75,0.00,BKN,,0.00,156.0,WeatherDisplay:10.37,2013-10-17 12:43:00,
2013-10-17 14:48:00,58.9,50.6,29.89,WNW,287,8.6,12.7,74,0.00,BKN,,0.00,178.0,WeatherDisplay:10.37,2013-10-17 12:48:00,
2013-10-17 14:53:00,59.2,51.6,29.88,NW,304,7.8,20.0,76,0.00,BKN,,0.00,541.0,WeatherDisplay:10.37,2013-10-17 12:53:00,
2013-10-17 14:58:00,59.3,51.4,29.89,WNW,301,7.9,15.0,75,0.00,BKN,,0.00,169.0,WeatherDisplay:10.37,2013-10-17 12:58:00,
2013-10-17 15:03:00,59.1,50.8,29.89,WNW,294,8.4,19.6,74,0.00,BKN,,0.00,420.0,WeatherDisplay:10.37,2013-10-17 13:03:00,
2013-10-17 15:08:00,58.9,51.0,29.89,NW,307,12.7,19.6,75,0.00,BKN,,0.00,431.0,WeatherDisplay:10.37,2013-10-17 13:08:00,
2013-10-17 15:13:00,59.1,51.5,29.89,WNW,293,12.3,18.4,76,0.00,BKN,,0.00,434.0,WeatherDisplay:10.37,2013-10-17 13:13:00,
2013-10-17 15:18:00,59.1,51.2,29.89,WSW,247,9.0,13.8,75,0.00,BKN,,0.00,262.0,WeatherDisplay:10.37,2013-10-17 13:18:00,
2013-10-17 15:23:00,59.2,51.3,29.89,WNW,300,11.7,18.4,75,0.00,BKN,,0.00,413.0,WeatherDisplay:10.37,2013-10-17 13:23:00,
2013-10-17 15:28:00,59.2,51.6,29.89,West,265,9.7,15.0,76,0.00,BKN,,0.00,418.0,WeatherDisplay:10.37,2013-10-17 13:28:00,
2013-10-17 15:33:00,59.1,51.2,29.89,WNW,294,11.5,18.4,75,0.00,FEW,,0.00,95.0,WeatherDisplay:10.37,2013-10-17 13:33:00,
2013-10-17 15:38:00,58.7,50.8,29.89,WNW,301,10.2,16.1,75,0.00,FEW,,0.00,287.0,WeatherDisplay:10.37,2013-10-17 13:38:00,
2013-10-17 15:43:00,58.5,50.9,29.89,WNW,290,9.2,15.0,76,0.00,FEW,,0.00,376.0,WeatherDisplay:10.37,2013-10-17 13:43:00,
2013-10-17 15:48:00,58.7,51.5,29.89,West,270,6.0,9.2,77,0.00,FEW,,0.00,420.0,WeatherDisplay:10.37,2013-10-17 13:48:00,
2013-10-17 15:53:00,58.8,51.2,29.89,WNW,295,10.5,14.0,76,0.00,FEW,,0.00,113.0,WeatherDisplay:10.37,2013-10-17 13:53:00,
2013-10-17 15:58:00,58.6,50.7,29.90,WNW,297,14.5,19.6,75,0.00,FEW,,0.00,125.0,WeatherDisplay:10.37,2013-10-17 13:58:00,
2013-10-17 16:03:00,58.4,50.8,29.90,WNW,287,5.6,9.2,76,0.00,BKN,,0.00,121.0,WeatherDisplay:10.37,2013-10-17 14:03:00,
2013-10-17 16:08:00,58.2,51.0,29.90,WNW,298,9.9,11.5,77,0.00,BKN,,0.00,186.0,WeatherDisplay:10.37,2013-10-17 14:08:00,
2013-10-17 16:13:00,58.2,50.6,29.90,WNW,294,7.8,11.5,76,0.00,BKN,,0.00,295.0,WeatherDisplay:10.37,2013-10-17 14:13:00,
2013-10-17 16:18:00,58.2,51.0,29.90,NNW,330,8.4,15.0,77,0.00,BKN,,0.00,51.0,WeatherDisplay:10.37,2013-10-17 14:18:00,
2013-10-17 16:23:00,58.0,50.8,29.90,WNW,294,7.2,11.5,77,0.00,BKN,,0.00,54.0,WeatherDisplay:10.37,2013-10-17 14:23:00,
2013-10-17 16:28:00,57.9,50.7,29.91,WNW,299,6.7,10.4,77,0.00,BKN,,0.00,271.0,WeatherDisplay:10.37,2013-10-17 14:28:00,
2013-10-17 16:33:00,58.1,50.9,29.91,West,280,7.7,11.5,77,0.00,FEW,,0.00,46.0,WeatherDisplay:10.37,2013-10-17 14:33:00,
2013-10-17 16:38:00,58.0,50.8,29.91,WNW,296,10.2,16.1,77,0.00,FEW,,0.00,77.0,WeatherDisplay:10.37,2013-10-17 14:38:00,
2013-10-17 16:43:00,58.0,50.8,29.91,West,259,4.9,8.1,77,0.00,FEW,,0.00,237.0,WeatherDisplay:10.37,2013-10-17 14:43:00,
2013-10-17 16:48:00,58.1,51.3,29.91,WNW,282,7.8,12.7,78,0.00,FEW,,0.00,227.0,WeatherDisplay:10.37,2013-10-17 14:48:00,
2013-10-17 16:53:00,58.3,51.4,29.91,WNW,289,5.5,9.2,78,0.00,FEW,,0.00,202.0,WeatherDisplay:10.37,2013-10-17 14:53:00,
2013-10-17 16:58:00,58.3,51.1,29.91,WNW,294,8.9,11.5,77,0.00,FEW,,0.00,195.0,WeatherDisplay:10.37,2013-10-17 14:58:00,
2013-10-17 17:03:00,58.4,51.2,29.91,NW,307,9.5,13.8,77,0.00,FEW,,0.00,186.0,WeatherDisplay:10.37,2013-10-17 15:03:00,
2013-10-17 17:08:00,58.4,51.2,29.91,WNW,295,5.9,11.5,77,0.00,FEW,,0.00,165.0,WeatherDisplay:10.37,2013-10-17 15:08:00,
2013-10-17 17:13:00,58.4,50.8,29.91,WNW,300,11.0,13.8,76,0.00,FEW,,0.00,151.0,WeatherDisplay:10.37,2013-10-17 15:13:00,
2013-10-17 17:18:00,58.3,50.7,29.91,WNW,299,7.6,9.2,76,0.00,FEW,,0.00,151.0,WeatherDisplay:10.37,2013-10-17 15:18:00,
2013-10-17 17:23:00,58.3,50.7,29.91,NW,307,7.6,14.0,76,0.00,FEW,,0.00,130.0,WeatherDisplay:10.37,2013-10-17 15:23:00,
2013-10-17 17:28:00,58.4,51.2,29.91,NW,305,5.3,9.2,77,0.00,FEW,,0.00,121.0,WeatherDisplay:10.37,2013-10-17 15:28:00,
2013-10-17 17:33:00,58.3,51.4,29.91,WNW,294,7.5,11.5,78,0.00,FEW,,0.00,149.0,WeatherDisplay:10.37,2013-10-17 15:33:00,
2013-10-17 17:38:00,58.4,51.5,29.91,West,265,7.0,10.4,78,0.00,FEW,,0.00,98.0,WeatherDisplay:10.37,2013-10-17 15:38:00,
2013-10-17 17:43:00,58.4,51.5,29.91,WNW,299,7.6,11.5,78,0.00,FEW,,0.00,100.0,WeatherDisplay:10.37,2013-10-17 15:43:00,
2013-10-17 17:48:00,58.4,51.5,29.91,WNW,303,4.0,8.1,78,0.00,FEW,,0.00,84.0,WeatherDisplay:10.37,2013-10-17 15:48:00,
2013-10-17 17:53:00,58.4,51.5,29.92,NW,304,5.7,10.4,78,0.00,FEW,,0.00,56.0,WeatherDisplay:10.37,2013-10-17 15:53:00,
2013-10-17 17:58:00,58.2,51.4,29.92,WNW,288,3.8,8.1,78,0.00,FEW,,0.00,44.0,WeatherDisplay:10.37,2013-10-17 15:58:00,
2013-10-17 18:03:00,58.1,51.3,29.92,West,277,5.6,9.2,78,0.00,BKN,,0.00,23.0,WeatherDisplay:10.37,2013-10-17 16:03:00,
2013-10-17 18:08:00,57.9,51.4,29.92,WNW,299,6.7,11.5,79,0.00,BKN,,0.00,21.0,WeatherDisplay:10.37,2013-10-17 16:08:00,
2013-10-17 18:13:00,57.7,51.2,29.92,WNW,289,4.1,7.0,79,0.00,BKN,,0.00,16.0,WeatherDisplay:10.37,2013-10-17 16:13:00,
2013-10-17 18:18:00,57.5,51.4,29.92,West,274,5.0,9.2,80,0.00,BKN,,0.00,12.0,WeatherDisplay:10.37,2013-10-17 16:18:00,
2013-10-17 18:23:00,57.3,51.2,29.92,West,271,4.4,8.1,80,0.00,BKN,,0.00,11.0,WeatherDisplay:10.37,2013-10-17 16:23:00,
2013-10-17 18:28:00,57.2,51.4,29.92,West,276,0.9,3.5,81,0.00,BKN,,0.00,9.0,WeatherDisplay:10.37,2013-10-17 16:28:00,
2013-10-17 18:33:00,57.0,51.2,29.92,West,281,5.1,8.1,81,0.00,FEW,,0.00,7.0,WeatherDisplay:10.37,2013-10-17 16:33:00,
2013-10-17 18:38:00,56.9,51.4,29.92,West,280,0.0,3.5,82,0.00,FEW,,0.00,5.0,WeatherDisplay:10.37,2013-10-17 16:38:00,
2013-10-17 18:43:00,56.7,51.2,29.92,WNW,282,2.0,3.5,82,0.00,FEW,,0.00,0.0,WeatherDisplay:10.37,2013-10-17 16:43:00,
2013-10-17 18:48:00,56.6,51.1,29.92,WNW,282,1.5,3.5,82,0.00,FEW,,0.00,0.0,WeatherDisplay:10.37,2013-10-17 16:48:00,
2013-10-17 18:53:00,56.4,51.3,29.92,WNW,282,0.0,0.0,83,0.00,FEW,,0.00,0.0,WeatherDisplay:10.37,2013-10-17 16:53:00,
2013-10-17 18:58:00,56.1,51.0,29.92,WNW,282,0.0,0.0,83,0.00,FEW,,0.00,0.0,WeatherDisplay:10.37,2013-10-17 16:58:00,
2013-10-17 19:03:00,56.0,51.2,29.92,WNW,282,0.0,0.0,84,0.00,FEW,,0.00,0.0,WeatherDisplay:10.37,2013-10-17 17:03:00,
2013-10-17 19:08:00,55.8,51.0,29.92,WNW,282,1.6,4.6,84,0.00,FEW,,0.00,0.0,WeatherDisplay:10.37,2013-10-17 17:08:00,
2013-10-17 19:13:00,55.7,51.2,29.93,WNW,282,0.0,0.0,85,0.00,FEW,,0.00,0.0,WeatherDisplay:10.37,2013-10-17 17:13:00,
2013-10-17 19:18:00,55.6,51.1,29.93,WNW,282,0.0,0.0,85,0.00,FEW,,0.00,0.0,WeatherDisplay:10.37,2013-10-17 17:18:00,
2013-10-17 19:23:00,55.5,51.4,29.93,WNW,282,0.0,0.0,86,0.00,FEW,,0.00,0.0,WeatherDisplay:10.37,2013-10-17 17:23:00,
2013-10-17 19:28:00,55.4,51.3,29.93,WNW,282,0.0,0.0,86,0.00,FEW,,0.00,0.0,WeatherDisplay:10.37,2013-10-17 17:28:00,
2013-10-17 19:33:00,55.2,51.1,29.93,WNW,282,0.0,0.0,86,0.00,FEW,,0.00,0.0,WeatherDisplay:10.37,2013-10-17 17:33:00,
2013-10-17 19:38:00,55.1,51.0,29.93,WNW,282,0.0,0.0,86,0.00,FEW,,0.00,0.0,WeatherDisplay:10.37,2013-10-17 17:38:00,
2013-10-17 19:43:00,54.9,51.1,29.93,WNW,282,0.0,0.0,87,0.00,FEW,,0.00,0.0,WeatherDisplay:10.37,2013-10-17 17:43:00,
2013-10-17 19:48:00,54.8,51.0,29.94,WNW,282,0.0,0.0,87,0.00,FEW,,0.00,0.0,WeatherDisplay:10.37,2013-10-17 17:48:00,
2013-10-17 19:53:00,54.7,50.9,29.94,WNW,282,0.0,0.0,87,0.00,FEW,,0.00,0.0,WeatherDisplay:10.37,2013-10-17 17:53:00,
2013-10-17 19:58:00,54.5,51.0,29.94,WNW,282,0.0,0.0,88,0.00,FEW,,0.00,0.0,WeatherDisplay:10.37,2013-10-17 17:58:00,
2013-10-17 20:03:00,54.3,50.8,29.94,WNW,282,0.0,0.0,88,0.00,FEW,,0.00,0.0,WeatherDisplay:10.37,2013-10-17 18:03:00,
2013-10-17 20:08:00,54.0,50.5,29.94,WNW,282,0.0,0.0,88,0.00,FEW,,0.00,0.0,WeatherDisplay:10.37,2013-10-17 18:08:00,
2013-10-17 20:13:00,53.7,50.2,29.95,WNW,282,0.0,0.0,88,0.00,FEW,,0.00,0.0,WeatherDisplay:10.37,2013-10-17 18:13:00,
2013-10-17 20:18:00,53.5,50.3,29.94,WNW,282,0.0,0.0,89,0.00,FEW,,0.00,0.0,WeatherDisplay:10.37,2013-10-17 18:18:00,
2013-10-17 20:23:00,53.3,50.1,29.94,WNW,282,0.0,0.0,89,0.00,FEW,,0.00,0.0,WeatherDisplay:10.37,2013-10-17 18:23:00,
2013-10-17 20:28:00,53.1,49.9,29.94,WNW,282,0.0,0.0,89,0.00,FEW,,0.00,0.0,WeatherDisplay:10.37,2013-10-17 18:28:00,
2013-10-17 20:33:00,52.9,50.0,29.94,WNW,282,0.0,0.0,90,0.00,FEW,,0.00,0.0,WeatherDisplay:10.37,2013-10-17 18:33:00,
2013-10-17 20:38:00,52.8,49.9,29.94,WNW,282,0.0,0.0,90,0.00,FEW,,0.00,0.0,WeatherDisplay:10.37,2013-10-17 18:38:00,
2013-10-17 20:43:00,52.5,49.6,29.94,WNW,282,0.0,0.0,90,0.00,FEW,,0.00,0.0,WeatherDisplay:10.37,2013-10-17 18:43:00,
2013-10-17 20:48:00,52.3,49.4,29.94,WNW,282,0.0,0.0,90,0.00,FEW,,0.00,0.0,WeatherDisplay:10.37,2013-10-17 18:48:00,
2013-10-17 20:53:00,52.2,49.3,29.94,WNW,282,0.0,0.0,90,0.00,FEW,,0.00,0.0,WeatherDisplay:10.37,2013-10-17 18:53:00,
2013-10-17 20:58:00,52.0,49.4,29.95,WNW,282,0.0,0.0,91,0.00,FEW,,0.00,0.0,WeatherDisplay:10.37,2013-10-17 18:58:00,
2013-10-17 21:03:00,51.9,49.3,29.95,WNW,282,0.0,0.0,91,0.00,FEW,,0.00,0.0,WeatherDisplay:10.37,2013-10-17 19:03:00,
2013-10-17 21:08:00,51.7,49.1,29.95,WNW,282,0.0,0.0,91,0.00,FEW,,0.00,0.0,WeatherDisplay:10.37,2013-10-17 19:08:00,
2013-10-17 21:13:00,51.4,48.8,29.95,WNW,282,0.0,0.0,91,0.00,FEW,,0.00,0.0,WeatherDisplay:10.37,2013-10-17 19:13:00,
2013-10-17 21:18:00,51.2,48.6,29.95,WNW,282,0.0,0.0,91,0.00,FEW,,0.00,0.0,WeatherDisplay:10.37,2013-10-17 19:18:00,
2013-10-17 21:23:00,51.0,48.4,29.95,WNW,282,0.0,0.0,91,0.00,FEW,,0.00,0.0,WeatherDisplay:10.37,2013-10-17 19:23:00,
2013-10-17 21:28:00,50.7,48.1,29.95,WNW,282,0.0,0.0,91,0.00,CLR,,0.00,0.0,WeatherDisplay:10.37,2013-10-17 19:28:00,
2013-10-17 21:31:00,50.6,48.0,29.95,WNW,282,0.0,0.0,91,0.00,FEW,,0.00,0.0,WeatherDisplay:10.37,2013-10-17 19:31:00,
2013-10-17 21:36:00,50.3,48.0,29.96,WNW,282,0.0,0.0,92,0.00,FEW,,0.00,0.0,WeatherDisplay:10.37,2013-10-17 19:36:00,
2013-10-17 21:41:00,50.2,47.9,29.96,WNW,282,0.0,0.0,92,0.00,FEW,,0.00,0.0,WeatherDisplay:10.37,2013-10-17 19:41:00,
2013-10-17 21:46:00,50.0,47.7,29.96,WNW,282,0.0,0.0,92,0.00,FEW,,0.00,0.0,WeatherDisplay:10.37,2013-10-17 19:46:00,
2013-10-17 21:51:00,49.8,47.5,29.96,WNW,282,0.0,0.0,92,0.00,FEW,,0.00,0.0,WeatherDisplay:10.37,2013-10-17 19:51:00,
2013-10-17 21:56:00,49.8,47.8,29.96,WNW,282,0.0,0.0,93,0.00,FEW,,0.00,0.0,WeatherDisplay:10.37,2013-10-17 19:56:00,
2013-10-17 22:01:00,49.6,47.6,29.96,WNW,282,0.0,0.0,93,0.00,CLR,,0.00,0.0,WeatherDisplay:10.37,2013-10-17 20:01:00,
2013-10-17 22:06:00,49.6,47.6,29.97,WNW,282,0.0,0.0,93,0.00,CLR,,0.00,0.0,WeatherDisplay:10.37,2013-10-17 20:06:00,
2013-10-17 22:11:00,49.5,47.5,29.97,WNW,282,0.0,0.0,93,0.00,CLR,,0.00,0.0,WeatherDisplay:10.37,2013-10-17 20:11:00,
2013-10-17 22:16:00,49.8,48.1,29.97,WNW,282,0.0,0.0,94,0.00,CLR,,0.00,0.0,WeatherDisplay:10.37,2013-10-17 20:16:00,
2013-10-17 22:21:00,50.0,48.3,29.97,WNW,282,0.0,0.0,94,0.00,CLR,,0.00,0.0,WeatherDisplay:10.37,2013-10-17 20:21:00,
2013-10-17 22:26:00,50.0,48.3,29.97,WNW,282,0.0,0.0,94,0.00,CLR,,0.00,0.0,WeatherDisplay:10.37,2013-10-17 20:26:00,
2013-10-17 22:31:00,50.0,48.3,29.97,WNW,282,0.0,0.0,94,0.00,CLR,,0.00,0.0,WeatherDisplay:10.37,2013-10-17 20:31:00,
2013-10-17 22:36:00,49.9,48.2,29.97,WNW,282,0.0,0.0,94,0.00,CLR,,0.00,0.0,WeatherDisplay:10.37,2013-10-17 20:36:00,
2013-10-17 22:41:00,49.9,48.2,29.97,WNW,282,0.0,0.0,94,0.00,CLR,,0.00,0.0,WeatherDisplay:10.37,2013-10-17 20:41:00,
2013-10-17 22:46:00,49.8,48.1,29.97,WNW,282,0.0,0.0,94,0.00,CLR,,0.00,0.0,WeatherDisplay:10.37,2013-10-17 20:46:00,
2013-10-17 22:51:00,50.0,48.6,29.97,WNW,282,0.0,0.0,95,0.00,CLR,,0.00,0.0,WeatherDisplay:10.37,2013-10-17 20:51:00,
2013-10-17 22:56:00,50.1,48.7,29.97,WNW,282,0.0,0.0,95,0.00,CLR,,0.00,0.0,WeatherDisplay:10.37,2013-10-17 20:56:00,
2013-10-17 23:01:00,49.9,48.5,29.98,WNW,282,0.0,0.0,95,0.00,FEW,,0.00,0.0,WeatherDisplay:10.37,2013-10-17 21:01:00,
2013-10-17 23:06:00,49.8,48.1,29.98,WNW,282,0.0,0.0,94,0.00,FEW,,0.00,0.0,WeatherDisplay:10.37,2013-10-17 21:06:00,
2013-10-17 23:11:00,49.8,48.4,29.98,WNW,282,0.0,0.0,95,0.00,FEW,,0.00,0.0,WeatherDisplay:10.37,2013-10-17 21:11:00,
2013-10-17 23:16:00,49.8,48.4,29.98,WNW,282,0.0,0.0,95,0.00,FEW,,0.00,0.0,WeatherDisplay:10.37,2013-10-17 21:16:00,
2013-10-17 23:21:00,49.6,48.2,29.98,WNW,282,0.0,0.0,95,0.00,FEW,,0.00,0.0,WeatherDisplay:10.37,2013-10-17 21:21:00,
2013-10-17 23:26:00,49.4,47.7,29.98,WNW,282,0.0,0.0,94,0.00,FEW,,0.00,0.0,WeatherDisplay:10.37,2013-10-17 21:26:00,
2013-10-17 23:31:00,49.2,47.8,29.98,WNW,282,0.0,0.0,95,0.00,CLR,,0.00,0.0,WeatherDisplay:10.37,2013-10-17 21:31:00,
2013-10-17 23:36:00,49.1,47.7,29.98,WNW,282,0.0,0.0,95,0.00,CLR,,0.00,0.0,WeatherDisplay:10.37,2013-10-17 21:36:00,
2013-10-17 23:41:00,48.9,47.5,29.98,WNW,282,0.0,0.0,95,0.00,CLR,,0.00,0.0,WeatherDisplay:10.37,2013-10-17 21:41:00,
2013-10-17 23:46:00,48.9,47.5,29.98,WNW,282,0.0,0.0,95,0.00,CLR,,0.00,0.0,WeatherDisplay:10.37,2013-10-17 21:46:00,
2013-10-17 23:51:00,48.9,47.5,29.98,WNW,282,0.0,0.0,95,0.00,CLR,,0.00,0.0,WeatherDisplay:10.37,2013-10-17 21:51:00,
2013-10-17 23:56:00,48.8,47.4,29.98,WNW,282,0.0,0.0,95,0.00,CLR,,0.00,0.0,WeatherDisplay:10.37,2013-10-17 21:56:00,